| time (UTC) | temp C | wind direction | speed KPH | gust KPH | rain 1hr cm | rain 24hr cm | rain mn cm | humidity % | barometer mb |
| 20260505194054 | 9 | 17 | 8.0 | 12.9 | 0.23 | 0.53 | 0.53 | 98 | 1007.2 |
| 20260505193054 | 9 | 16 | 8.0 | 16.1 | 0.23 | 0.51 | 0.51 | 98 | 1007.1 |
| 20260505192051 | 9 | 19 | 8.0 | 12.9 | 0.20 | 0.46 | 0.46 | 98 | 1007.1 |
| 20260505191052 | 9 | 23 | 8.0 | 12.9 | 0.18 | 0.43 | 0.43 | 98 | 1007.0 |
| 20260505190053 | 10 | 23 | 8.0 | 12.9 | 0.18 | 0.43 | 0.43 | 98 | 1007.0 |
| 20260505185051 | 10 | 25 | 8.0 | 14.5 | 0.15 | 0.38 | 0.38 | 98 | 1006.9 |
| 20260505184052 | 10 | 24 | 8.0 | 12.9 | 0.15 | 0.36 | 0.36 | 98 | 1006.9 |
| 20260505183050 | 10 | 19 | 8.0 | 14.5 | 0.15 | 0.33 | 0.33 | 98 | 1007.0 |
| 20260505182051 | 10 | 18 | 8.0 | 16.1 | 0.13 | 0.28 | 0.28 | 98 | 1007.0 |
| 20260505175051 | 10 | 18 | 9.7 | 16.1 | 0.13 | 0.23 | 0.23 | 98 | 1007.0 |
| 20260505173053 | 10 | 24 | 9.7 | 17.7 | 0.10 | 0.20 | 0.20 | 99 | 1007.0 |
| 20260505172047 | 10 | 20 | 8.0 | 14.5 | 0.08 | 0.18 | 0.18 | 99 | 1007.0 |
| 20260505171049 | 10 | 24 | 8.0 | 17.7 | 0.05 | 0.15 | 0.15 | 99 | 1007.0 |
| 20260505170051 | 10 | 21 | 9.7 | 16.1 | 0.08 | 0.15 | 0.15 | 99 | 1007.0 |
| 20260505165052 | 10 | 21 | 9.7 | 16.1 | 0.08 | 0.15 | 0.15 | 99 | 1007.1 |
| 20260505164050 | 10 | 28 | 9.7 | 16.1 | 0.08 | 0.13 | 0.13 | 99 | 1007.2 |
| 20260505163055 | 10 | 28 | 9.7 | 16.1 | 0.10 | 0.13 | 0.13 | 99 | 1007.1 |
| 20260505162049 | 10 | 26 | 11.3 | 20.9 | 0.08 | 0.10 | 0.10 | 98 | 1007.2 |
| 20260505152050 | 10 | 13 | 11.3 | 19.3 | 0.03 | 0.03 | 0.03 | 98 | 1007.2 |
| 20260505151046 | 10 | 10 | 11.3 | 19.3 | 0.03 | 0.03 | 0.03 | 97 | 1007.2 |
| 20260505124048 | 12 | 13 | 11.3 | 19.3 | 0.00 | 0.15 | 0.00 | 92 | 1007.6 |
| 20260505123048 | 12 | 7 | 11.3 | 19.3 | 0.00 | 0.15 | 0.00 | 92 | 1007.6 |
| 20260505122047 | 12 | 10 | 11.3 | 17.7 | 0.00 | 0.15 | 0.00 | 92 | 1007.7 |
| 20260505121047 | 12 | 7 | 11.3 | 17.7 | 0.00 | 0.18 | 0.00 | 93 | 1007.7 |
| 20260505120047 | 12 | 3 | 11.3 | 17.7 | 0.00 | 0.18 | 0.00 | 93 | 1007.7 |
| 20260505115047 | 12 | 7 | 11.3 | 17.7 | 0.00 | 0.18 | 0.00 | 93 | 1007.8 |
| 20260505114049 | 12 | 358 | 12.9 | 19.3 | 0.00 | 0.18 | 0.00 | 93 | 1007.8 |
| 20260505113046 | 12 | 358 | 12.9 | 19.3 | 0.00 | 0.18 | 0.00 | 93 | 1007.9 |
| 20260505112049 | 12 | 7 | 11.3 | 17.7 | 0.00 | 0.20 | 0.00 | 93 | 1007.9 |
| 20260505102046 | 12 | 8 | 8.0 | 12.9 | 0.00 | 0.20 | 0.00 | 92 | 1008.3 |
| 20260505101052 | 12 | 8 | 8.0 | 12.9 | 0.00 | 0.20 | 0.00 | 92 | 1008.4 |
| 20260505100047 | 12 | 347 | 4.8 | 11.3 | 0.00 | 0.23 | 0.00 | 92 | 1008.3 |
| 20260505095049 | 12 | 174 | 4.8 | 9.7 | 0.00 | 0.23 | 0.00 | 92 | 1008.3 |
| 20260505093048 | 13 | 92 | 8.0 | 14.5 | 0.00 | 0.23 | 0.00 | 89 | 1008.3 |
| 20260505092047 | 13 | 98 | 6.4 | 12.9 | 0.00 | 0.23 | 0.00 | 90 | 1008.3 |
| 20260505091050 | 13 | 92 | 4.8 | 9.7 | 0.00 | 0.23 | 0.00 | 86 | 1008.3 |
| 20260505090048 | 13 | 103 | 4.8 | 9.7 | 0.00 | 0.23 | 0.00 | 85 | 1008.2 |
| 20260505085048 | 13 | 89 | 4.8 | 8.0 | 0.00 | 0.23 | 0.00 | 86 | 1008.3 |
| 20260505083049 | 13 | 86 | 4.8 | 8.0 | 0.00 | 0.23 | 0.00 | 87 | 1008.4 |
| 20260505082048 | 12 | 99 | 4.8 | 9.7 | 0.00 | 0.23 | 0.00 | 90 | 1008.6 |
| 20260505081046 | 12 | 102 | 3.2 | 8.0 | 0.00 | 0.23 | 0.00 | 92 | 1008.7 |
| 20260505080019 | 12 | 90 | 3.2 | 6.4 | 0.00 | 0.23 | 0.00 | 94 | 1008.7 |
| 20260505075023 | 12 | 138 | 3.2 | 4.8 | 0.00 | 0.23 | 0.00 | 98 | 1008.7 |
| 20260505074022 | 11 | 155 | 3.2 | 8.0 | 0.00 | 0.23 | 0.00 | 99 | 1008.8 |
| 20260505073022 | 11 | 76 | 3.2 | 8.0 | 0.00 | 0.23 | 0.00 | 99 | 1008.9 |
| 20260505072029 | 11 | 37 | 4.8 | 8.0 | 0.00 | 0.23 | 0.00 | 99 | 1009.0 |
| 20260505071038 | 11 | 32 | 4.8 | 8.0 | 0.00 | 0.23 | 0.00 | 99 | 1009.1 |
| 20260505070017 | 11 | 21 | 4.8 | 8.0 | 0.00 | 0.23 | 0.00 | 99 | 1009.2 |
| 20260505065020 | 11 | 3 | 3.2 | 6.4 | 0.00 | 0.23 | 0.00 | 99 | 1009.2 |
| 20260505064018 | 11 | 349 | 1.6 | 3.2 | 0.00 | 0.23 | 0.00 | 99 | 1009.3 |
| 20260505063018 | 11 | 65 | 1.6 | 3.2 | 0.00 | 0.23 | 0.00 | 99 | 1009.2 |
| 20260505062019 | 10 | 26 | 1.6 | 4.8 | 0.00 | 0.23 | 0.00 | 99 | 1009.3 |
| 20260505061021 | 10 | 17 | 3.2 | 4.8 | 0.00 | 0.23 | 0.00 | 99 | 1009.4 |
| 20260505060017 | 10 | 7 | 3.2 | 6.4 | 0.00 | 0.23 | 0.00 | 99 | 1009.3 |
| 20260505054048 | 10 | 349 | 4.8 | 6.4 | 0.00 | 0.23 | 0.00 | 99 | 1009.3 |